Theta_e
314 313 313 314 314 315 319 321 324 327 327 327 323 321 318 319 321 320 321 321 319 320 318 318 319 318 319 319 319 318 318 322 322 323 324 323 321 318 319 317 320 320 318 320 323 326 327 330 330 331 331 330 330 330 330 330 331 330 330 329 331 329 321 319 319 319 319 319 319 319 319 318 318 317 317 316 316 317 320 324 325 329 331 332 334 335 336 334 330 328 327 328 329 330 329 326 325
313 313 314 313 315 318 321 322 328 335 331 321 319 319 317 319 320 322 326 323 322 320 318 319 319 319 319 319 319 319 319 319 319 320 320 321 320 320 319 317 319 319 319 319 321 325 326 328 328 330 330 330 330 330 330 330 331 330 331 330 330 329 322 319 319 319 319 320 320 320 320 320 319 319 319 318 317 318 320 323 325 329 330 332 334 335 336 333 327 325 325 326 327 329 330 329 329
313 314 313 314 318 320 324 323 328 336 330 319 320 325 319 317 322 325 324 322 320 318 319 319 319 320 319 320 319 319 320 319 320 319 320 320 320 320 320 318 318 320 320 319 319 322 324 326 327 328 328 330 330 330 330 330 331 330 331 330 329 329 323 319 319 319 320 320 320 321 321 320 320 320 321 321 320 319 320 322 324 328 330 332 335 335 336 331 325 323 322 323 324 325 326 327 328
313 314 313 317 319 321 332 332 337 339 326 320 321 324 323 321 326 324 319 318 319 318 319 319 320 321 320 321 319 319 320 320 320 320 320 320 319 319 318 317 318 319 320 320 319 319 321 324 326 327 327 328 329 330 330 330 331 331 331 330 328 328 324 319 319 320 320 321 321 321 321 321 322 324 325 324 323 322 322 322 324 328 330 332 334 336 335 330 325 323 319 319 321 322 322 321 322
314 317 315 318 320 321 331 329 333 333 322 324 319 319 329 328 326 320 317 318 318 319 318 319 320 320 320 320 320 319 319 320 320 320 320 319 318 317 317 317 317 318 319 320 319 319 319 322 324 326 327 327 328 328 329 330 330 330 330 330 329 328 324 320 319 320 320 321 321 322 324 326 326 329 329 325 324 324 323 323 326 329 330 330 331 332 329 325 321 318 315 315 316 318 319 318 317
318 321 318 319 320 317 327 324 323 328 327 328 319 322 332 325 320 317 317 319 318 319 319 319 320 319 319 319 320 320 319 320 319 319 319 317 317 316 316 316 316 316 318 320 320 320 319 320 322 324 326 326 327 327 328 328 328 329 330 330 329 328 324 320 319 320 320 321 323 326 329 329 328 332 333 327 323 324 324 324 325 326 327 326 326 325 323 321 318 314 314 313 313 314 314 314 313
321 323 318 320 320 318 331 327 326 332 324 321 319 323 324 316 315 316 317 319 319 319 319 319 319 319 319 319 319 320 319 320 319 319 318 316 316 315 316 316 316 316 316 319 320 320 319 319 320 322 324 325 326 326 326 326 327 327 329 330 329 327 323 320 319 320 320 321 326 330 331 329 328 330 334 330 324 325 327 325 325 325 326 326 325 324 322 321 317 313 313 312 311 311 311 311 311
321 320 318 325 328 328 336 326 329 333 319 315 317 317 315 315 314 316 318 317 319 318 318 319 318 319 319 318 319 320 319 319 319 319 317 316 316 316 315 315 316 316 315 317 319 320 320 320 320 321 322 324 326 325 325 325 325 325 326 329 329 328 324 320 320 320 320 323 329 332 330 329 328 329 333 332 326 327 328 328 328 327 327 326 324 322 319 318 315 312 311 311 311 310 310 310 310
319 320 317 324 331 334 338 327 324 325 322 320 315 315 315 316 316 316 318 317 317 317 318 319 319 319 318 317 318 319 319 319 319 319 317 316 317 316 315 315 315 316 316 315 317 319 320 320 320 320 321 323 324 324 325 325 324 324 324 326 328 329 326 323 321 321 321 324 330 331 330 329 327 329 331 333 330 330 330 330 329 326 326 324 319 315 313 313 312 310 310 310 310 310 310 309 309
319 320 317 325 332 330 330 326 324 322 325 320 313 317 316 316 317 316 318 317 317 316 317 319 319 319 318 318 319 319 319 319 319 319 317 316 317 316 316 316 315 315 315 315 316 317 319 320 320 320 320 321 323 323 324 325 324 324 324 324 326 328 328 327 324 323 323 325 329 330 330 329 328 330 330 331 331 332 331 331 329 327 326 322 317 313 311 310 309 309 309 309 309 309 308 307 307
321 318 319 331 334 325 322 324 329 329 326 319 315 317 316 317 317 316 317 316 316 315 316 318 319 319 318 318 319 319 319 319 319 318 316 316 317 316 316 316 316 315 315 316 315 316 318 319 320 320 319 320 320 321 323 324 324 324 324 323 324 326 328 329 327 326 325 326 328 328 330 329 328 330 331 331 331 332 332 332 330 328 326 322 317 313 310 309 309 309 308 308 308 307 306 305 305
320 321 331 341 330 322 323 326 329 332 332 324 319 317 316 317 316 316 316 315 315 315 316 317 318 318 317 318 318 318 317 318 319 319 317 316 317 316 316 316 316 316 315 316 315 316 317 318 319 320 320 319 320 319 321 323 324 324 324 323 323 324 326 329 329 327 326 326 327 327 328 328 328 330 331 332 332 332 332 332 330 329 327 322 317 312 309 308 308 308 307 307 306 305 304 304 304
320 323 334 331 323 323 322 324 328 331 331 323 317 317 316 315 316 316 315 315 314 315 317 317 318 318 317 317 317 317 317 317 318 319 318 317 317 317 316 316 316 316 316 315 315 316 315 317 318 319 320 320 320 319 320 322 323 324 324 324 323 323 324 327 328 327 326 326 327 327 327 327 327 328 331 332 332 332 332 332 331 330 328 322 317 313 310 308 308 307 305 305 304 304 304 304 305
320 321 326 321 319 325 321 321 326 324 321 318 317 316 316 316 316 316 315 316 315 316 317 317 317 317 316 316 316 317 316 316 316 317 318 318 317 317 317 317 316 316 316 315 315 315 315 316 316 318 319 320 320 320 320 321 322 323 324 324 324 323 323 326 327 327 327 327 327 327 327 327 326 326 328 332 333 332 331 331 330 330 327 322 318 315 311 308 308 306 304 304 304 304 304 304 305
319 319 326 325 321 325 322 320 323 321 318 318 317 315 316 316 316 316 316 316 317 316 317 318 317 317 316 315 316 316 316 315 316 316 317 317 318 317 317 316 316 316 316 316 315 315 315 315 316 316 318 319 320 320 320 320 321 322 323 324 325 325 324 325 327 327 327 327 327 327 327 326 325 323 325 329 332 332 331 330 330 328 325 322 319 316 312 308 307 305 303 303 303 304 304 305 306
318 317 325 324 319 321 321 320 321 322 319 317 316 316 316 316 316 316 316 316 316 316 317 317 316 316 316 315 316 315 316 316 315 316 316 316 317 318 317 316 316 317 316 316 315 315 315 315 315 315 316 318 319 320 320 320 321 321 322 324 325 326 325 326 326 327 328 328 328 327 327 326 324 322 322 326 330 331 330 330 330 328 324 321 318 315 311 308 307 304 303 303 303 304 304 305 307
315 319 326 323 320 321 321 322 321 321 322 318 315 316 315 316 317 316 316 316 316 316 316 316 316 316 316 315 316 315 315 316 315 315 315 316 317 317 318 317 316 316 317 316 316 315 315 315 315 315 315 316 318 318 319 320 320 321 322 323 325 327 327 327 327 327 328 328 328 328 328 327 325 323 323 326 328 329 329 329 329 327 322 318 317 314 310 308 306 304 303 304 303 304 304 305 307
318 327 324 321 327 326 324 326 319 317 320 317 315 315 314 315 317 315 316 316 316 316 315 316 315 315 315 315 315 315 315 315 315 315 315 315 316 317 317 317 317 317 317 316 316 316 316 316 315 315 315 316 317 318 319 319 320 321 321 322 324 326 327 327 327 327 328 329 329 329 329 327 326 325 325 326 328 328 328 328 326 324 320 317 315 312 310 308 306 304 303 304 303 304 304 306 307
321 327 320 324 334 325 319 321 316 315 318 315 315 315 313 315 315 315 316 315 315 315 315 315 315 315 315 315 315 315 315 315 315 315 315 315 315 316 316 316 317 316 317 317 317 317 316 316 316 315 315 316 316 317 318 319 320 321 321 322 322 323 324 325 326 327 328 329 330 330 329 328 327 326 325 325 326 327 327 327 325 322 319 316 313 312 309 308 306 304 303 304 304 304 304 306 307
318 319 322 333 328 317 315 316 316 316 316 314 314 314 313 314 314 314 314 314 315 315 315 315 315 316 315 315 315 315 315 315 315 315 315 315 315 316 316 316 316 316 316 316 317 317 317 317 316 315 315 315 316 317 318 319 320 321 322 322 322 322 322 322 323 326 328 328 329 330 329 328 328 327 326 325 325 326 327 327 325 321 317 314 312 312 310 308 307 304 303 304 303 303 304 305 307
316 318 326 329 316 315 318 316 317 317 315 314 313 314 314 315 315 314 314 315 316 315 315 315 315 315 315 315 315 315 315 315 315 315 315 315 315 315 316 316 316 316 316 316 317 316 317 317 317 316 315 315 315 316 317 318 320 321 322 324 324 323 323 323 322 323 325 326 327 328 328 328 328 327 327 326 326 326 326 326 323 318 314 313 312 312 311 309 308 305 303 303 303 303 304 305 306
317 319 321 319 313 316 318 316 318 317 315 314 313 314 315 315 315 314 314 316 317 315 316 316 315 315 315 315 315 315 314 314 315 314 314 314 314 315 315 315 316 316 316 316 316 317 317 317 317 316 315 315 315 316 316 317 319 320 322 324 326 326 324 324 324 323 323 324 325 325 326 327 327 327 327 327 327 327 327 325 319 315 313 312 312 312 311 309 308 306 303 303 303 303 304 305 306
319 320 316 316 316 316 317 317 317 317 316 314 314 315 314 314 314 314 314 314 316 316 316 316 315 314 314 314 314 314 314 314 314 314 314 314 314 315 315 315 315 315 315 316 316 317 317 317 317 316 316 315 316 316 316 317 318 319 320 321 324 327 327 326 325 324 324 325 324 323 324 325 326 326 327 327 327 327 326 323 318 316 315 313 313 312 311 309 308 306 304 303 303 303 304 304 306
319 321 316 316 316 314 316 316 315 316 315 315 314 313 312 313 314 314 313 314 316 315 316 315 314 314 314 315 314 314 314 314 314 314 314 314 314 314 315 315 315 315 314 315 315 316 316 317 317 317 317 316 316 317 317 317 317 318 319 321 322 324 327 328 327 325 326 326 326 326 325 325 325 324 326 327 327 326 325 323 321 321 320 318 316 313 312 310 308 307 304 302 302 303 303 304 305
317 320 316 314 314 314 315 314 314 315 314 315 313 312 312 313 313 312 313 316 316 315 315 315 314 314 314 314 314 314 314 314 315 314 314 314 314 313 314 314 314 315 315 315 314 315 316 316 317 317 317 316 317 317 317 318 318 318 318 319 320 321 323 326 327 328 329 330 329 328 327 327 326 325 325 326 326 325 325 324 324 323 323 321 320 317 315 312 310 308 305 303 302 302 303 303 304
315 316 314 312 313 313 314 314 314 314 313 313 312 312 312 313 313 312 315 316 316 315 315 315 314 314 315 314 314 314 314 315 315 315 315 314 313 313 313 314 314 315 315 315 314 315 315 316 317 317 317 317 317 318 318 318 318 319 319 319 320 321 321 323 325 327 329 331 330 328 329 329 328 327 326 326 326 326 325 325 325 325 324 323 322 320 319 317 313 309 306 303 302 302 302 302 303
313 312 312 312 313 313 313 313 314 313 312 312 313 313 312 311 312 315 317 316 315 314 313 313 314 314 314 314 314 314 314 314 314 315 315 314 314 314 314 314 314 315 314 315 315 315 315 316 317 317 317 317 317 318 319 319 319 319 320 320 321 321 322 323 325 328 329 329 329 329 329 329 329 328 327 327 327 327 326 326 326 325 324 323 322 322 322 320 316 312 309 304 301 302 301 302 302
312 312 313 312 311 312 313 313 313 313 313 313 312 313 312 310 313 317 317 316 314 313 312 312 313 313 313 313 313 313 313 314 314 314 314 314 314 313 314 314 314 314 314 314 314 315 315 316 316 317 317 317 317 318 319 320 321 320 321 321 322 323 323 325 326 329 330 328 327 328 328 328 329 328 328 328 327 326 326 325 325 324 322 320 321 322 322 321 317 313 311 307 302 301 301 302 302
313 312 314 315 313 314 313 312 312 312 313 313 312 314 317 315 315 318 316 315 314 312 311 311 312 312 312 312 313 313 313 313 313 313 312 312 312 313 313 314 314 314 315 315 315 315 315 316 316 316 316 317 317 319 320 321 322 322 322 322 323 324 324 326 326 327 328 327 326 326 327 327 327 327 328 328 327 326 325 325 324 323 321 320 321 322 322 320 317 315 314 310 304 301 301 301 302
314 312 312 315 315 318 314 310 311 311 313 313 312 317 325 324 318 316 315 313 314 312 311 311 312 312 312 312 312 312 313 312 312 312 311 311 311 312 312 313 313 314 315 315 316 316 316 316 316 317 316 316 317 319 322 323 324 324 323 324 324 325 326 326 326 326 326 326 326 326 326 326 326 326 326 326 326 326 325 325 324 323 322 322 322 322 321 319 317 316 315 313 308 302 301 301 301
315 311 314 316 315 322 319 310 311 313 313 312 312 317 324 324 317 314 313 312 314 312 310 311 312 312 311 311 312 312 311 311 311 311 311 311 311 312 312 313 313 313 314 315 316 316 316 317 316 316 316 316 317 319 323 324 325 325 325 325 326 326 327 327 327 327 327 327 326 326 326 326 326 325 325 325 325 325 325 325 324 324 323 322 322 322 321 320 318 318 317 315 312 306 302 301 301
321 312 320 323 315 322 322 310 310 314 313 310 312 318 320 318 315 314 312 312 315 311 309 311 311 311 310 310 310 310 310 309 310 310 310 311 311 311 311 312 313 313 314 314 315 315 315 315 315 315 316 316 317 320 324 326 326 326 326 326 326 326 327 328 328 327 328 327 326 326 326 326 325 325 325 325 324 324 324 325 324 324 323 322 321 321 321 321 320 319 318 317 315 310 306 303 302
325 315 320 326 318 318 319 312 309 310 313 311 311 316 318 316 314 314 312 312 314 310 309 310 309 309 308 308 309 308 309 309 309 310 309 310 310 311 311 312 313 313 314 315 315 315 315 315 315 315 316 317 319 322 325 326 327 327 326 326 326 326 327 327 328 328 328 328 327 326 326 325 324 325 325 325 324 324 324 324 324 323 323 322 321 321 320 321 321 320 320 318 317 315 312 309 307
325 318 316 321 318 315 317 317 312 309 313 314 313 314 316 316 313 312 312 311 311 309 308 308 306 306 306 306 307 307 308 308 309 309 308 309 309 310 311 312 312 313 314 314 315 315 316 316 317 317 318 319 321 323 325 326 327 326 326 326 326 326 326 327 327 327 327 327 326 326 326 325 325 326 325 325 324 324 324 324 323 323 323 322 321 321 320 320 320 320 320 319 318 317 316 315 313
325 321 317 319 318 315 316 317 314 312 315 315 315 316 316 318 313 309 311 310 310 309 306 305 305 305 305 305 306 306 307 307 307 307 307 308 309 310 310 311 311 312 313 314 315 316 316 317 318 318 318 320 321 323 324 325 326 325 326 325 325 326 326 326 326 326 326 326 326 326 325 326 326 326 325 325 325 325 324 324 323 323 322 322 321 320 320 320 320 319 319 318 318 317 317 316 315
322 320 319 319 319 317 316 315 313 311 314 315 316 316 318 319 314 310 309 309 308 307 305 305 304 304 304 304 304 305 305 305 305 306 307 308 308 309 310 310 310 311 312 312 314 314 315 316 317 317 318 320 321 322 323 324 324 324 324 324 324 324 324 324 324 324 325 325 325 325 324 324 324 325 325 325 325 324 324 323 323 322 321 321 320 320 319 319 319 318 317 317 316 316 316 315 315
316 316 316 317 316 316 314 315 314 310 313 319 317 316 318 317 314 309 307 308 307 305 304 304 303 303 303 303 303 303 304 304 304 305 307 307 308 309 309 309 309 310 310 311 311 312 313 314 315 316 318 320 320 321 322 322 323 323 323 322 322 322 322 323 323 322 323 323 323 323 323 323 322 323 323 322 322 322 322 321 321 320 320 319 319 318 317 317 317 316 316 316 315 315 315 314 314
312 313 315 315 314 314 313 314 314 310 312 319 317 316 318 315 312 307 305 307 306 304 304 303 302 302 302 302 302 302 302 303 304 305 306 307 307 308 308 309 309 309 309 310 310 311 311 311 312 313 315 317 318 319 320 321 321 321 321 320 320 320 320 320 320 320 320 320 320 321 320 320 320 320 320 320 320 320 320 319 319 319 318 318 317 316 315 315 315 314 314 314 314 314 313 313 313
312 313 313 315 316 316 317 317 315 312 313 320 318 315 316 314 309 306 304 305 304 303 303 302 302 302 301 301 301 301 302 303 304 304 305 306 306 307 307 307 308 308 308 309 309 309 309 309 309 310 311 312 313 315 316 317 318 318 319 319 318 318 318 318 318 317 317 317 317 317 318 317 318 318 318 318 318 318 318 317 317 317 317 316 316 316 315 314 314 313 313 311 311 311 311 311 311
314 315 315 317 317 317 321 321 317 314 312 316 317 314 316 312 308 306 303 303 303 302 302 301 301 301 300 300 300 301 301 302 302 303 304 305 305 306 306 306 307 307 307 307 308 307 307 307 307 308 308 309 309 310 311 312 313 313 314 315 315 315 315 314 314 314 314 314 314 314 314 314 314 315 315 315 315 316 315 315 315 315 315 315 314 314 314 313 313 312 312 311 310 309 309 309 309
318 318 316 317 317 316 319 319 317 317 315 314 314 316 321 317 312 310 305 303 303 302 302 301 300 300 300 300 300 300 301 301 302 302 303 304 305 305 305 306 306 307 307 307 307 307 307 307 307 307 307 307 307 308 308 309 309 309 309 309 310 310 309 309 309 309 308 308 308 308 308 308 309 309 310 310 310 310 310 311 311 311 311 311 311 311 311 311 311 311 311 311 310 309 308 308 307
320 321 318 316 316 317 318 317 316 319 322 316 312 320 329 323 316 312 306 305 304 302 301 300 300 299 299 299 299 299 300 301 302 302 303 304 305 306 306 306 307 307 307 307 307 307 307 307 307 307 307 307 307 307 307 307 307 307 307 307 307 307 307 306 306 305 305 305 305 304 304 304 304 304 304 304 304 304 305 305 305 305 306 306 307 308 308 308 309 309 310 310 310 309 308 307 307
320 321 319 316 314 315 318 317 316 322 324 315 310 317 326 325 321 314 308 307 305 302 301 300 299 299 298 298 298 299 300 300 301 302 303 304 305 306 306 306 306 306 306 306 306 306 306 306 306 306 306 306 306 306 306 306 306 306 306 306 306 306 306 305 305 304 304 304 304 304 304 303 303 303 303 302 302 302 302 302 302 302 302 303 303 304 305 306 306 307 307 308 308 308 308 307 307
323 319 318 320 316 317 320 318 318 321 319 316 315 315 317 320 320 313 308 308 305 303 302 300 299 298 298 298 298 298 299 300 301 302 303 304 305 305 305 305 305 305 305 305 305 305 305 305 305 305 305 305 305 305 305 305 305 305 305 305 305 305 305 304 303 303 303 303 303 303 303 303 303 303 303 302 302 302 302 301 301 301 301 301 301 301 302 302 303 303 304 304 305 306 306 306 306
324 317 316 320 318 319 320 317 318 317 313 319 323 316 315 320 319 310 307 310 308 305 303 301 299 298 297 297 297 298 299 299 301 302 303 303 304 304 304 304 304 304 304 304 304 304 304 304 304 304 304 304 304 304 304 304 304 304 304 304 304 303 303 303 303 303 302 302 303 302 302 302 302 302 302 302 302 302 302 302 301 301 301 301 300 300 300 300 300 300 301 301 302 303 303 304 304
315 312 315 319 318 319 319 317 319 316 314 320 322 317 317 323 322 312 308 312 312 306 303 301 299 298 297 297 297 298 298 299 300 301 302 302 303 303 303 303 303 303 303 303 303 303 303 303 303 303 303 302 302 302 303 302 302 302 302 302 302 302 301 301 302 302 301 301 301 301 300 300 300 300 300 300 300 300 300 301 301 301 301 300 300 300 300 300 300 299 299 299 300 300 301 301 302
308 313 319 320 320 319 319 319 318 316 319 321 319 317 317 322 325 317 311 311 310 306 303 301 299 298 297 297 297 297 298 299 300 301 301 301 302 302 302 302 302 302 302 302 302 302 302 302 302 302 302 301 301 301 302 301 301 301 301 301 301 300 300 300 300 300 299 299 299 298 298 297 297 296 296 296 296 297 297 297 297 298 298 298 299 299 299 299 299 299 299 299 299 299 299 299 299
310 319 322 320 321 319 319 321 318 319 325 322 315 313 314 319 322 316 310 306 305 306 304 301 299 297 297 297 297 297 298 299 300 300 301 301 301 301 301 302 301 301 301 301 301 301 301 301 301 301 301 300 300 300 300 300 300 300 300 300 300 299 298 298 298 297 296 296 295 295 295 295 295 294 294 294 293 293 293 293 293 293 294 294 294 295 295 295 296 296 297 297 297 298 298 298 299
316 320 320 320 322 321 322 323 320 321 321 316 313 313 313 319 318 311 308 305 302 303 302 300 299 297 297 297 296 297 297 298 299 300 300 300 301 301 301 301 301 301 301 300 300 300 300 300 300 300 300 299 299 299 299 299 298 298 298 298 297 297 297 296 296 295 294 294 293 293 293 293 293 293 293 292 292 291 291 291 291 291 291 291 291 291 291 291 292 292 293 293 293 294 294 295 296
315 317 320 322 322 323 327 324 319 320 318 313 313 315 317 321 316 306 303 301 299 300 301 300 299 298 298 297 297 297 297 298 299 299 300 300 300 300 300 300 300 300 300 299 299 299 299 299 299 299 299 298 297 297 297 297 296 296 295 295 294 294 294 294 294 293 293 292 292 292 292 292 291 292 291 291 291 291 290 290 290 290 290 290 290 290 290 290 290 290 290 290 290 290 290 291 291
313 316 318 320 323 326 328 326 323 322 320 314 312 315 322 325 314 302 300 299 298 300 300 299 299 298 298 297 297 298 298 299 299 299 299 300 300 299 299 299 299 299 299 298 298 298 298 298 297 298 297 297 296 296 295 295 294 294 293 293 293 293 292 292 292 292 291 291 291 291 291 291 291 291 291 291 291 291 291 291 291 290 290 290 290 290 290 290 290 290 290 290 290 290 290 290 290
313 313 315 317 321 323 321 318 318 318 318 317 315 318 320 316 306 300 299 298 297 298 298 298 298 297 297 297 297 297 298 298 298 299 299 299 299 299 299 298 298 298 298 297 297 297 297 297 296 296 296 295 294 294 294 293 293 292 292 292 292 292 292 291 291 291 291 291 291 291 291 291 291 291 291 291 291 291 291 291 291 290 290 290 290 290 290 290 290 290 290 290 290 290 290 290 290
314 311 317 316 314 319 319 314 311 312 316 317 316 318 316 311 306 302 300 300 299 298 297 297 297 297 297 297 297 297 297 298 298 299 299 298 298 298 298 297 297 297 297 297 297 296 296 296 295 295 294 293 293 293 293 292 292 292 292 292 292 292 291 291 291 291 291 291 291 291 291 291 291 291 291 291 290 290 290 290 290 290 290 289 289 289 289 289 289 289 290 290 290 290 290 290 290
316 316 317 313 310 317 319 316 315 314 316 317 315 316 317 316 313 304 300 301 301 299 297 296 296 296 297 297 297 297 297 297 297 298 298 298 297 297 297 296 296 296 296 296 296 295 295 294 293 293 293 292 292 292 292 291 291 292 292 292 291 291 291 291 291 291 291 291 291 291 291 291 290 290 290 290 290 290 289 289 289 289 289 289 289 288 288 288 288 288 289 289 289 289 289 289 289
314 315 312 312 316 319 316 316 319 317 317 319 317 312 313 316 315 311 308 305 301 300 299 297 297 296 296 297 297 297 296 296 297 297 298 297 297 296 296 296 295 295 295 295 295 294 293 293 292 292 292 292 292 292 292 292 291 292 291 291 291 291 291 291 291 291 291 291 291 291 291 290 290 290 290 289 289 289 289 289 289 288 288 288 288 288 288 288 288 288 288 288 288 288 288 289 289
308 310 309 312 317 319 317 316 317 318 317 319 318 313 314 316 315 318 316 306 300 300 300 298 297 296 297 298 297 296 296 297 297 297 297 297 296 296 295 295 295 294 294 294 293 292 292 291 292 292 292 292 292 292 292 292 291 291 291 291 291 291 291 290 290 290 290 290 290 290 290 290 289 289 289 289 288 288 288 288 288 288 288 288 288 288 288 288 288 288 288 288 288 288 288 288 288
312 313 313 314 313 314 316 315 315 319 319 320 319 315 318 319 312 313 313 305 300 300 299 299 297 297 298 298 298 297 297 297 298 298 297 297 296 295 294 294 293 293 292 292 291 291 291 291 291 292 292 292 292 292 292 291 291 291 291 291 291 290 290 290 290 290 290 289 289 289 289 289 288 288 288 288 288 288 288 288 288 288 288 288 288 288 288 288 288 288 288 288 288 288 288 288 288
314 314 315 315 314 315 317 315 314 316 317 320 319 314 317 316 308 307 308 304 301 299 298 298 298 298 299 299 299 299 298 298 298 298 297 296 295 294 293 293 292 291 291 291 291 291 291 291 291 292 292 292 292 292 291 291 291 291 291 291 291 290 290 290 290 289 289 289 288 288 288 287 287 287 287 287 287 287 287 287 287 287 287 287 288 288 288 288 288 288 288 288 288 288 288 288 288
Wind_Speed
8 8 9 8 8 6 5 3 1 2 4 2 2 0 2 3 2 1 2 3 2 3 4 2 1 3 1 1 3 3 3 4 4 2 1 3 1 2 1 1 3 2 4 8 11 14 17 19 18 17 16 16 16 16 15 14 14 13 12 11 11 12 13 12 11 11 10 10 9 8 7 7 7 6 6 6 5 6 6 6 7 7 7 7 6 6 5 5 5 4 2 2 2 2 2 3 3
8 7 9 7 6 5 4 1 1 3 5 2 2 2 3 2 1 3 6 5 3 2 1 2 1 2 2 3 2 2 3 4 5 4 3 4 2 2 1 1 3 3 4 7 10 12 15 17 18 17 17 16 16 16 15 14 14 13 12 12 12 12 13 13 11 11 10 10 9 8 7 6 6 7 7 7 6 6 6 6 7 7 7 7 6 6 5 5 5 3 1 1 3 3 4 4 4
8 6 7 6 4 2 1 2 2 1 5 2 3 4 1 0 4 6 8 6 3 1 1 1 1 2 1 1 2 2 3 4 5 6 4 4 3 3 2 3 3 5 4 6 8 10 13 15 17 17 16 16 16 16 15 15 14 13 12 12 13 13 14 13 12 11 10 9 8 7 6 6 6 7 7 8 7 7 7 7 7 7 7 7 6 6 5 4 3 1 2 3 4 5 6 6 6
7 5 5 4 2 1 2 3 2 4 3 2 2 4 2 3 7 7 7 6 4 2 1 1 1 2 1 1 2 3 5 4 3 5 4 4 4 4 3 3 4 6 6 6 7 9 11 13 15 16 16 16 16 16 16 15 15 14 12 12 13 13 14 14 12 12 10 9 8 7 6 5 4 4 6 8 8 7 7 7 7 7 7 7 7 6 5 4 5 6 6 6 7 8 8 8 8
6 5 5 3 1 0 3 3 2 4 3 4 1 4 5 5 7 6 5 5 4 3 2 2 2 2 3 3 3 2 3 3 3 5 3 3 3 3 3 2 3 5 6 6 6 7 9 12 14 15 16 16 16 16 16 16 15 14 13 13 13 14 15 15 13 12 11 10 8 7 6 4 3 3 5 6 6 7 7 7 7 7 7 7 7 7 6 7 9 10 9 7 7 9 10 9 9
4 3 5 3 2 2 3 3 1 1 4 5 2 5 6 6 6 4 3 1 3 2 2 2 1 2 3 3 4 4 3 2 3 4 3 3 2 3 3 2 2 5 7 7 6 6 8 11 13 14 16 16 16 16 16 16 15 14 14 13 14 15 16 15 14 13 12 11 9 7 5 4 4 5 6 6 6 6 6 6 6 6 6 7 8 9 9 11 12 10 8 7 8 9 10 10 9
3 3 4 3 3 3 3 3 3 2 3 5 4 5 6 6 6 2 1 1 1 2 3 2 1 2 2 3 4 4 4 5 5 4 3 2 2 3 3 3 1 4 6 7 7 6 6 9 12 14 15 16 16 16 15 15 15 14 14 14 14 15 16 16 15 14 13 11 9 8 7 6 7 8 9 8 7 6 5 4 5 5 6 8 9 10 11 12 13 10 7 7 8 9 9 9 9
3 3 4 2 2 4 4 2 3 3 1 3 4 5 6 5 4 2 0 0 2 3 2 3 1 1 2 3 5 5 6 7 7 6 5 3 1 2 4 3 2 2 5 7 8 8 7 8 10 13 14 16 17 16 15 15 15 14 14 14 14 15 17 17 16 15 14 11 10 9 9 8 8 10 11 10 9 7 6 5 5 6 7 10 11 12 12 13 14 11 8 7 9 9 9 9 9
4 4 3 2 2 3 3 1 2 3 3 3 4 7 6 3 4 2 0 1 2 3 3 3 1 1 4 6 7 7 7 8 7 7 6 5 2 1 3 4 3 2 3 6 8 9 8 8 9 11 13 15 17 17 16 16 16 15 14 15 15 16 17 17 16 16 14 12 11 11 10 10 10 11 12 12 11 9 8 7 6 7 7 9 11 12 13 13 13 11 9 8 9 9 8 8 8
4 4 2 2 3 3 3 2 1 2 5 4 5 7 4 2 4 1 1 0 1 3 4 2 4 5 5 7 8 5 5 7 6 7 7 6 4 1 1 3 3 3 2 4 7 9 9 9 8 10 12 14 16 17 17 17 17 16 15 15 16 16 17 18 17 16 15 13 12 12 11 11 11 12 13 13 13 11 10 9 8 8 8 9 11 12 12 12 11 10 9 9 8 7 7 7 7
3 5 3 4 4 2 0 3 4 4 6 5 6 6 3 3 2 1 2 1 2 3 4 2 3 5 5 7 8 7 6 8 7 8 9 7 6 4 2 0 2 2 2 3 6 8 10 10 10 10 11 13 16 16 17 18 18 17 16 16 17 17 18 18 18 17 16 14 13 13 12 12 12 12 13 14 14 13 11 11 10 9 9 10 12 12 11 11 10 7 7 8 7 6 6 6 6
2 3 4 4 3 1 2 2 5 6 7 5 3 1 1 2 1 1 1 1 3 5 5 3 2 3 2 3 8 11 9 9 8 8 10 9 8 8 6 3 1 2 2 4 6 8 10 11 12 12 12 13 15 16 17 18 18 18 17 16 17 18 18 19 19 18 17 16 15 14 13 13 13 14 14 14 15 14 12 11 10 9 9 10 12 12 11 10 9 7 7 7 6 6 6 5 5
2 1 4 2 2 2 2 2 4 5 6 3 2 3 3 3 2 3 2 2 3 3 5 3 2 2 2 5 9 9 8 9 7 6 10 11 11 11 10 7 5 4 5 6 7 7 9 11 13 14 13 14 15 16 17 18 19 18 17 17 17 18 18 19 19 19 18 18 16 15 14 14 14 15 16 15 16 15 14 13 11 10 10 10 11 12 12 10 9 7 7 7 6 6 5 6 6
3 3 4 2 1 1 2 2 2 0 2 3 3 6 7 5 5 6 3 3 5 3 3 2 2 3 3 5 6 4 8 12 11 8 10 12 14 14 13 12 9 8 7 7 8 8 9 11 13 14 15 15 15 16 17 18 19 19 18 18 18 18 18 19 19 19 19 18 17 17 15 15 16 17 18 18 17 16 15 14 13 11 11 10 11 12 12 11 9 7 7 7 6 6 6 6 6
3 3 4 3 2 2 3 1 1 4 2 3 5 10 12 9 7 8 5 4 5 3 2 3 3 4 4 4 8 11 14 17 15 14 12 13 16 16 16 15 13 12 10 9 9 10 10 11 13 14 16 16 17 17 17 18 19 20 19 18 18 19 19 19 20 19 19 19 18 18 17 16 17 19 20 20 19 17 17 16 15 12 11 10 11 12 13 11 9 8 8 7 6 7 7 7 7
3 3 5 2 1 2 2 2 1 3 3 4 5 12 10 9 8 8 7 7 9 7 5 6 7 8 10 12 16 19 19 19 18 17 13 12 15 17 17 17 16 15 14 12 10 11 11 13 14 15 17 17 18 18 17 18 18 19 19 19 19 19 19 19 20 20 20 19 19 18 18 18 18 19 20 20 20 19 19 18 17 14 12 11 12 13 13 11 9 8 8 7 7 8 8 8 8
2 2 4 1 1 2 3 4 3 2 5 5 6 10 4 6 8 8 10 12 15 13 11 11 12 14 17 19 20 21 21 20 18 16 13 10 12 15 18 19 19 19 18 16 13 12 13 13 15 16 17 17 18 18 18 18 18 19 20 20 20 20 20 20 20 21 21 20 20 19 19 19 19 18 18 19 19 20 20 20 18 15 13 12 12 13 13 11 9 8 9 8 8 8 8 9 8
1 2 3 1 3 3 5 6 5 3 3 5 6 8 3 5 8 9 11 14 17 17 19 17 15 17 17 17 17 18 19 18 17 16 15 13 12 14 16 18 20 21 20 19 17 15 15 14 15 17 18 18 18 19 19 19 19 20 20 20 21 21 21 21 21 21 22 22 21 21 21 20 20 19 18 19 20 20 20 19 17 15 14 13 12 13 12 11 9 9 9 9 9 9 9 9 8
2 3 2 3 5 5 5 7 6 4 5 8 10 8 5 6 8 8 7 13 16 14 21 21 17 19 18 16 16 15 16 17 17 17 17 17 16 16 17 18 20 21 21 20 19 19 17 15 15 17 18 18 19 20 20 20 20 20 21 21 21 21 21 22 22 22 23 23 23 22 22 21 20 20 19 20 21 21 20 19 18 16 15 14 13 13 12 11 9 9 10 9 9 9 10 10 9
1 3 1 6 7 5 6 8 8 9 9 9 10 8 6 10 9 7 4 10 14 11 17 18 18 23 22 21 20 18 18 18 17 16 17 18 18 19 18 18 19 19 20 20 20 20 19 17 17 17 17 19 20 21 21 21 21 21 22 22 22 22 22 22 22 23 23 23 23 23 22 21 21 21 20 20 20 21 21 21 19 17 16 15 13 13 13 12 10 10 11 10 10 10 10 11 10
2 4 4 5 4 3 8 9 10 11 8 8 10 9 10 13 10 6 4 5 9 14 19 17 21 28 26 24 23 21 20 18 17 17 18 19 20 21 21 21 21 21 21 21 21 21 20 19 18 17 17 18 20 21 22 22 22 23 23 23 23 23 23 23 23 23 24 24 23 23 22 21 21 21 21 21 21 21 22 21 19 18 17 15 13 13 13 13 11 10 11 11 11 11 11 11 11
3 5 7 6 4 3 10 11 11 12 8 9 11 9 10 12 11 10 8 5 10 21 26 24 27 29 26 24 22 20 17 16 15 15 17 18 20 21 22 23 23 24 25 24 23 22 22 20 19 17 16 17 19 21 22 22 23 23 23 23 24 25 25 24 24 24 24 24 24 23 23 22 21 21 22 22 22 22 22 21 20 19 17 15 14 14 14 14 13 11 11 11 12 12 12 12 12
3 4 7 9 8 7 12 14 14 14 12 12 11 10 12 12 14 14 12 15 22 29 29 27 27 24 21 20 18 16 13 12 12 12 14 15 16 17 18 19 20 22 23 23 23 23 23 21 20 17 16 15 17 18 20 22 23 23 23 24 24 25 26 26 26 26 25 25 24 24 23 23 22 22 23 22 22 22 22 23 22 19 17 16 15 15 15 15 14 13 12 12 14 14 13 13 13
5 4 5 8 10 9 14 15 15 16 16 18 16 14 13 11 12 13 18 28 30 27 23 21 19 17 17 16 13 10 10 11 11 11 12 13 14 14 15 17 17 19 19 20 20 21 21 21 21 18 15 14 14 15 17 19 21 22 23 23 23 23 25 27 28 27 26 25 24 24 23 23 22 22 24 24 23 23 23 23 22 20 19 18 17 16 15 15 15 14 13 14 15 16 15 14 14
5 5 5 5 9 11 14 16 18 19 18 20 16 14 17 16 13 13 24 30 22 17 14 13 13 14 16 14 9 8 9 10 10 11 11 12 13 13 15 17 18 18 19 19 19 19 19 19 19 17 15 13 13 14 14 15 17 19 21 22 22 22 23 25 27 28 27 26 25 24 23 23 23 23 24 24 24 23 23 23 22 21 21 21 20 19 17 16 16 15 14 15 16 18 17 16 16
5 5 6 7 11 14 15 18 21 19 17 16 11 13 18 16 9 12 22 16 8 9 10 10 11 13 14 11 8 8 9 8 9 11 12 14 14 15 16 18 20 20 20 18 18 18 17 17 17 16 14 12 13 13 13 13 14 15 17 18 19 21 21 21 24 26 27 27 26 24 23 23 23 23 24 24 24 24 24 23 23 24 24 23 23 21 20 18 17 16 16 16 17 19 18 18 17
2 3 7 9 13 16 15 18 23 19 15 14 10 11 15 8 0 7 17 9 6 9 9 10 10 8 7 7 8 8 9 9 10 11 13 15 15 15 16 16 18 17 16 15 15 16 16 16 14 13 12 10 10 10 11 11 12 12 13 15 16 17 17 18 20 24 25 25 24 23 22 22 22 23 23 23 23 24 24 24 24 26 25 24 23 22 21 19 17 16 17 17 18 20 20 20 19
4 6 8 10 12 16 15 16 20 14 8 8 8 8 9 2 3 10 17 12 10 12 11 10 6 3 2 4 6 7 8 10 11 12 12 12 12 12 13 13 14 13 12 12 13 14 14 14 13 11 10 9 8 8 9 10 10 10 11 12 13 13 14 15 17 22 24 24 22 21 21 20 20 20 21 21 22 22 22 22 22 22 20 18 18 18 19 19 17 16 16 17 19 21 22 22 21
5 5 6 9 9 12 14 10 9 4 2 4 3 4 7 2 7 13 15 13 13 13 12 9 5 1 2 3 4 5 6 8 9 11 8 6 6 7 9 10 11 11 10 9 9 11 11 12 13 13 12 10 9 8 8 9 9 9 9 10 11 11 11 12 13 16 19 20 19 18 18 19 18 18 19 21 21 20 19 19 19 18 16 15 15 16 17 17 16 16 16 17 19 21 23 23 23
6 3 1 5 7 7 8 1 0 1 2 4 3 2 7 6 12 13 10 12 17 17 11 8 4 1 3 3 2 2 3 5 6 6 4 4 4 5 6 6 7 8 8 7 6 7 9 11 13 14 14 12 11 9 8 9 8 8 8 9 10 10 11 11 11 11 12 13 14 15 16 16 16 17 17 18 19 18 16 16 16 15 15 14 14 15 16 16 16 16 16 16 18 20 22 23 24
3 2 1 3 2 5 7 2 1 3 3 4 6 2 6 9 14 13 10 15 22 18 8 4 1 2 3 4 3 1 1 2 3 3 3 3 3 4 4 4 5 5 5 4 4 4 6 9 11 13 13 13 12 10 9 8 8 8 8 8 9 9 9 10 9 9 10 11 12 13 13 14 15 15 15 15 16 15 15 15 15 15 14 14 14 15 16 16 16 17 17 17 17 18 20 22 24
2 1 3 3 2 5 10 7 2 2 1 3 6 2 6 8 13 13 13 19 22 15 5 4 3 5 5 5 5 4 4 4 3 3 3 3 3 3 3 3 3 3 3 3 2 2 4 6 8 9 10 11 11 10 9 8 8 8 7 6 7 7 7 8 8 9 10 11 12 12 12 12 13 14 14 14 14 14 15 15 15 15 15 16 16 16 16 17 17 18 18 18 17 17 18 19 22
3 1 4 3 3 3 7 5 1 3 1 2 3 2 5 6 13 18 18 19 17 8 4 6 6 7 7 7 7 7 6 5 5 5 5 5 5 5 5 4 4 4 3 3 3 3 3 3 5 6 8 9 9 9 8 7 6 6 6 5 6 6 6 7 7 8 9 10 11 11 11 11 12 12 13 14 14 14 14 15 16 16 17 17 18 18 18 18 18 19 20 19 18 17 18 19 19
3 0 3 4 4 3 4 4 3 5 4 2 1 2 6 8 15 21 19 16 10 4 7 9 9 9 10 9 9 8 7 6 7 7 7 7 7 7 6 6 5 4 3 3 3 2 2 1 2 3 4 6 6 7 6 5 4 4 5 5 5 5 5 5 6 7 8 9 10 10 11 11 11 12 12 14 15 14 14 16 17 17 17 19 20 20 19 20 20 21 21 20 20 20 20 20 20
4 3 3 4 3 4 4 5 4 5 5 2 3 3 8 11 12 13 16 12 7 10 12 11 11 11 11 11 11 11 10 10 10 10 8 7 7 7 6 6 5 4 4 3 3 2 2 2 2 2 3 4 4 5 4 4 4 4 4 4 4 4 4 4 4 5 6 6 7 8 9 10 11 11 12 13 15 15 15 16 16 16 18 19 20 20 20 20 20 21 21 21 21 21 21 21 21
6 5 4 4 4 5 5 6 5 3 4 4 5 6 8 9 7 10 13 10 12 14 14 13 13 13 13 13 13 12 12 13 12 9 8 7 7 7 7 7 7 6 6 6 4 4 4 5 4 4 5 5 5 5 5 5 5 4 4 4 4 5 4 4 4 4 4 5 6 6 7 7 8 10 12 13 13 14 14 14 14 14 16 18 18 19 19 19 20 21 21 21 21 21 22 22 22
3 2 3 4 5 6 5 5 6 1 1 6 5 4 8 6 3 7 9 8 12 12 13 14 13 14 14 14 14 13 14 14 11 9 8 8 7 8 7 7 7 6 7 7 7 7 7 6 5 6 8 7 6 6 6 6 6 6 5 5 5 6 6 5 5 5 4 4 5 6 6 7 7 7 8 9 10 11 12 12 13 13 14 15 15 15 15 15 16 18 19 20 21 21 22 22 23
1 2 4 5 5 7 6 6 6 1 3 5 2 3 9 5 3 6 7 7 8 8 10 12 13 14 14 14 14 14 14 13 10 10 10 9 9 9 8 9 9 10 12 12 11 11 10 9 8 9 9 7 7 7 6 5 6 5 4 5 6 5 5 5 4 4 3 4 4 4 4 4 5 6 7 8 9 10 12 13 14 15 15 15 14 14 13 13 13 14 16 17 19 20 21 21 22
3 2 2 5 4 4 7 5 5 2 3 4 3 4 8 3 3 6 8 8 8 9 10 11 13 14 13 14 14 14 15 14 13 13 13 12 12 12 13 14 15 16 17 17 17 17 16 15 14 13 12 10 10 9 6 6 5 4 3 4 5 5 4 4 4 4 4 4 5 6 6 7 8 9 10 12 13 15 16 17 17 18 18 18 17 17 17 17 16 15 15 15 17 18 19 20 21
3 3 2 5 3 1 4 5 4 2 0 3 2 4 6 1 3 5 9 10 12 13 13 13 14 14 13 13 14 15 17 17 17 18 18 18 18 18 19 21 21 21 23 24 23 23 23 22 20 19 18 16 15 13 11 9 7 6 4 4 3 3 4 4 3 3 3 4 5 6 7 8 10 11 13 14 16 18 18 19 19 20 21 22 22 22 23 22 20 19 17 15 15 16 17 18 19
3 5 5 5 5 6 6 4 4 3 3 2 1 4 5 2 1 2 6 8 10 11 13 14 13 14 13 13 15 17 18 20 21 22 23 23 24 25 26 26 26 27 28 28 27 27 26 25 24 23 22 21 20 18 16 13 11 10 9 7 6 5 6 5 4 3 1 1 1 2 3 4 6 8 10 11 13 14 15 16 18 19 20 21 22 22 22 21 20 19 19 18 16 16 17 17 18
4 5 10 11 9 8 6 3 5 4 3 3 3 3 5 4 3 3 3 4 6 7 10 12 11 12 13 14 16 17 19 21 23 25 26 27 28 29 29 29 29 30 30 28 27 27 26 26 25 24 24 23 22 20 18 16 15 15 13 12 11 9 10 10 9 9 7 6 5 3 2 2 3 3 4 5 6 7 9 10 12 13 14 15 16 17 17 18 18 18 18 19 18 17 17 18 18
2 5 9 10 7 5 4 2 2 0 4 3 3 1 5 5 4 5 5 4 3 4 7 8 9 11 12 14 15 17 20 22 24 27 28 29 30 30 30 29 29 29 28 26 25 25 25 24 23 23 23 23 22 20 17 16 17 16 16 16 16 14 14 15 13 12 11 9 8 6 6 6 6 6 6 6 5 5 6 6 7 8 9 10 11 12 13 15 16 17 18 19 19 19 19 20 20
3 4 4 7 6 6 6 5 3 3 3 4 2 2 3 5 5 4 7 6 3 2 4 5 7 9 11 13 15 18 20 22 25 27 28 29 29 28 28 27 27 26 25 23 23 23 23 22 22 21 21 21 20 19 17 17 17 17 16 16 17 17 17 16 13 11 11 10 8 9 9 9 9 9 9 9 8 7 7 7 7 8 8 9 9 10 11 11 13 14 16 17 19 20 21 22 23
5 3 6 6 6 6 5 5 2 1 1 4 4 1 2 5 4 1 5 4 2 3 3 2 6 8 10 13 15 18 20 22 24 26 27 27 27 26 26 25 24 23 22 22 22 22 21 20 19 19 20 20 19 17 16 17 17 17 17 16 17 18 17 15 13 12 12 11 10 11 11 11 11 11 11 11 10 9 9 8 8 8 8 8 9 10 10 11 12 12 13 15 16 17 19 21 22
4 5 6 5 5 5 4 4 3 2 1 5 6 3 2 5 4 0 2 2 4 5 3 4 7 8 10 13 15 18 20 22 23 25 25 25 25 24 23 22 22 21 21 20 20 19 18 18 16 16 18 18 17 16 15 16 15 15 16 16 17 18 16 14 12 13 13 12 12 13 13 13 13 12 12 11 11 11 10 10 9 9 9 9 9 10 10 11 11 12 13 14 15 16 17 18 20
6 6 6 6 5 5 4 2 3 2 3 6 8 8 5 4 5 2 3 2 3 6 5 5 7 10 11 13 15 18 20 22 22 23 23 23 23 22 20 20 20 20 19 17 17 16 15 15 14 15 17 15 14 14 12 13 12 12 13 14 14 15 13 11 11 12 12 11 11 13 13 12 13 13 13 13 12 12 12 12 11 10 10 10 10 11 12 12 13 13 13 13 14 15 16 18 19
6 4 4 3 3 4 4 4 3 1 5 5 5 4 5 4 4 2 2 3 2 5 7 9 10 12 14 15 16 18 19 21 21 22 21 21 20 19 18 18 18 17 16 15 15 14 13 13 12 13 14 13 12 11 10 10 9 9 10 10 10 11 10 9 10 11 11 11 11 11 10 9 10 10 11 12 13 14 14 14 13 13 12 12 12 12 12 13 13 14 14 14 14 14 15 16 17
5 4 5 3 3 3 3 3 0 3 5 3 2 1 2 6 4 0 3 4 5 5 8 15 17 18 19 17 17 18 19 20 20 20 20 19 18 17 16 16 15 14 14 13 13 12 12 11 10 10 12 11 10 9 8 8 8 9 9 8 9 9 8 9 9 10 11 11 11 11 10 10 10 10 11 13 14 14 15 15 15 16 16 16 16 15 15 15 15 15 15 15 16 16 16 16 16
4 5 5 3 2 0 3 3 2 4 4 2 2 0 1 5 2 0 4 5 7 5 11 21 23 23 22 20 19 18 19 19 19 19 18 17 16 16 15 14 13 12 12 11 11 10 9 9 8 8 10 10 9 8 7 7 8 8 9 8 9 9 8 9 9 10 10 11 11 12 12 13 13 14 14 15 15 15 15 15 16 16 17 17 17 17 17 17 17 18 18 18 18 18 18 18 19
3 4 5 4 4 4 4 3 3 4 3 2 3 1 2 3 1 2 3 3 4 5 15 22 22 23 22 20 20 19 19 19 18 18 17 16 15 14 13 12 11 10 10 9 9 8 7 7 6 6 8 8 7 6 6 6 7 8 8 8 9 9 9 10 10 10 10 10 11 12 13 14 14 15 15 16 16 16 17 17 17 18 18 19 19 19 20 20 20 20 20 20 20 21 21 21 21
2 3 4 2 4 4 2 3 4 2 2 3 2 3 3 4 1 2 2 5 7 10 16 20 20 20 20 20 20 20 20 20 19 17 16 15 13 12 11 10 9 9 9 8 7 7 5 5 4 5 6 6 6 6 5 6 6 7 7 7 8 8 9 9 9 10 10 11 12 12 13 14 14 15 15 16 17 18 19 19 20 20 21 21 22 22 23 23 23 23 23 23 23 23 24 23 23
2 2 3 4 4 6 3 2 1 3 1 4 2 2 4 1 1 2 3 5 5 7 11 16 19 19 20 21 21 21 20 20 18 17 15 14 13 12 10 9 8 8 7 6 6 5 4 3 3 4 5 6 5 5 5 5 5 5 6 6 7 7 8 8 9 10 11 12 12 13 14 14 15 16 17 18 18 19 20 21 21 22 23 23 24 25 25 26 26 26 27 27 28 28 28 28 27
5 2 5 3 2 4 3 1 3 3 3 4 1 3 3 1 1 3 3 2 3 4 7 11 15 17 20 21 22 21 20 19 18 16 15 13 12 11 10 9 8 7 6 5 5 5 4 4 4 4 4 5 5 4 4 4 4 4 5 6 6 7 8 9 9 10 11 12 13 14 15 16 17 18 18 19 20 21 21 22 23 23 24 25 26 27 27 28 29 29 29 29 30 31 32 32 32
4 3 3 3 3 1 2 2 2 2 3 4 3 2 3 4 4 2 4 7 8 6 6 8 13 19 22 24 24 22 20 20 18 17 15 14 13 12 11 10 9 8 7 6 6 6 6 6 5 5 4 4 3 2 2 3 3 4 6 6 7 8 9 10 11 12 13 14 15 15 16 17 17 18 19 20 21 22 23 23 24 25 26 27 28 29 30 31 32 33 33 33 33 33 35 35 35
3 2 1 2 2 4 2 2 3 2 2 4 4 4 3 5 5 6 9 11 11 10 9 10 16 23 27 27 26 24 22 21 19 18 16 15 14 13 12 10 10 9 8 8 8 8 7 7 6 5 4 3 2 1 0 2 4 5 6 7 8 9 10 11 12 13 14 15 16 17 18 18 18 19 20 21 22 23 24 25 26 27 28 29 31 32 34 36 37 38 38 38 38 37 38 39 38
2 2 2 1 1 1 1 1 3 3 2 2 3 5 5 4 3 6 7 7 11 14 13 13 19 26 28 28 27 25 24 22 20 18 17 16 15 14 13 12 11 11 10 10 9 8 7 6 5 4 4 3 3 2 1 3 5 6 7 8 8 10 11 12 13 14 15 16 17 17 18 18 19 19 21 22 23 23 25 26 27 28 30 31 33 35 37 39 40 42 43 43 43 42 42 42 42
5 5 5 5 4 2 1 3 1 2 3 4 3 6 7 4 2 3 4 4 10 16 14 13 19 26 28 28 28 26 25 23 21 19 18 17 16 15 14 14 13 12 11 10 9 8 7 6 5 5 5 4 2 2 4 7 9 10 12 13 13 15 15 16 17 18 18 18 18 18 19 19 19 19 21 22 23 24 25 27 28 30 31 32 34 36 37 39 41 42 43 44 45 46 47 47 46
Wind_Direction
316 317 315 316 314 307 300 306 314 351 66 85 312 14 233 224 203 215 275 288 300 260 230 258 245 181 191 247 229 250 226 188 188 131 235 254 339 329 322 172 178 147 171 189 197 193 188 190 197 202 206 209 212 216 216 216 218 222 224 219 213 206 198 195 192 184 182 181 185 186 189 193 194 200 204 209 201 190 169 159 157 147 156 164 166 172 179 185 180 180 183 208 229 236 234 218 202
325 323 319 318 318 312 269 338 77 344 48 76 281 177 256 305 311 215 216 224 221 244 231 236 243 214 244 269 268 288 253 245 237 223 266 264 284 301 315 236 192 168 170 184 198 201 197 194 197 200 204 208 212 217 219 219 221 225 228 226 219 212 203 199 196 192 191 190 192 192 197 201 206 212 211 212 207 206 188 171 165 154 163 171 175 183 190 190 182 172 181 246 253 256 256 252 246
336 330 321 313 311 323 237 40 84 55 70 104 273 247 283 39 225 230 217 225 251 257 223 231 261 229 184 339 280 193 239 270 239 229 265 260 273 302 293 276 211 194 183 183 198 204 205 201 200 202 203 206 211 216 219 220 221 224 227 228 225 219 210 203 200 199 197 198 200 202 210 216 224 225 222 217 206 211 203 184 173 163 169 178 184 198 202 194 206 263 279 271 269 264 261 259 257
344 343 333 311 276 357 66 47 116 114 107 183 285 273 250 186 224 238 234 255 266 239 268 289 306 247 217 333 271 231 259 268 222 215 250 272 297 322 309 284 226 211 196 190 195 201 207 206 206 206 206 207 210 215 219 221 221 221 222 224 226 223 216 209 207 206 206 209 214 219 224 231 235 233 225 212 199 205 200 185 177 168 171 186 197 208 217 228 265 283 280 271 269 266 264 262 261
349 357 347 324 250 71 80 73 100 97 171 184 67 278 247 206 225 251 265 272 236 215 307 297 336 293 266 275 240 242 264 237 222 225 253 293 318 345 349 317 233 225 209 200 196 199 203 206 209 210 211 210 211 215 219 223 223 221 218 219 221 222 219 214 214 214 215 219 225 232 238 246 240 228 219 198 181 185 185 180 180 179 183 200 216 232 251 268 275 281 285 278 268 266 266 269 270
351 359 351 7 83 96 94 91 97 296 223 173 151 264 253 219 218 257 291 256 205 225 290 272 319 315 290 280 241 248 264 249 255 244 258 296 344 12 8 353 242 230 220 209 204 204 201 204 209 211 215 214 214 217 220 225 226 223 218 217 218 218 217 215 217 219 222 226 225 228 233 234 227 218 214 204 181 174 179 185 193 197 209 229 244 260 272 279 280 284 292 289 272 264 265 270 274
333 324 338 40 68 43 92 123 185 241 233 173 180 250 258 239 218 252 346 114 219 269 267 255 300 320 309 315 281 263 265 267 276 273 268 282 2 20 6 356 276 237 228 221 215 211 207 207 208 211 214 216 218 220 222 225 229 228 221 219 219 217 216 215 217 220 224 226 219 220 218 216 222 219 218 216 198 185 196 201 215 224 239 256 267 277 282 286 290 294 294 288 275 268 267 269 274
347 330 352 68 46 27 89 125 223 218 234 208 223 254 267 270 237 234 224 154 305 299 281 269 304 359 283 310 301 289 294 286 276 266 259 263 322 28 14 10 344 267 237 230 224 221 219 213 211 212 213 216 219 221 223 225 230 232 226 223 222 219 217 217 218 221 224 220 214 220 221 218 224 224 224 223 210 204 215 220 230 237 249 268 282 288 290 292 295 300 296 283 275 275 274 274 277
359 347 1 66 70 31 52 349 283 238 259 271 277 265 271 281 244 226 185 260 318 313 308 277 268 305 290 301 295 288 298 301 281 254 245 249 259 24 35 41 30 349 265 241 234 230 228 225 218 216 215 216 220 221 221 224 229 232 230 228 226 222 221 221 221 224 226 218 213 221 227 226 227 228 229 229 224 219 225 231 235 244 261 280 292 295 296 296 298 304 299 285 280 280 279 278 282
355 14 53 71 72 35 5 297 302 267 260 277 282 270 273 265 243 184 103 238 323 330 332 286 251 266 292 302 298 297 295 311 296 251 237 242 254 250 74 63 56 28 307 253 243 240 235 234 227 222 220 218 221 223 220 222 227 229 230 228 228 225 224 226 225 228 228 222 218 223 230 231 231 230 233 236 235 231 232 238 242 254 274 289 296 298 300 301 303 308 301 289 286 286 282 283 285
342 19 68 74 67 40 305 244 286 285 278 305 295 264 256 270 257 40 59 330 287 311 321 303 250 255 289 296 295 305 300 313 302 253 239 246 255 248 226 95 64 39 308 249 239 242 241 239 235 229 226 223 225 225 223 222 226 228 228 227 227 226 226 228 228 230 229 226 225 227 231 233 232 229 231 235 236 237 240 245 250 261 281 296 301 302 303 305 308 311 301 292 289 288 285 285 283
343 5 55 84 113 201 207 231 281 289 305 325 303 260 285 264 236 277 271 300 286 303 307 288 257 264 297 288 297 314 319 322 304 259 246 248 256 256 253 247 267 354 294 244 232 233 237 240 238 236 230 228 229 229 227 225 227 229 228 227 226 226 227 229 230 230 231 230 229 229 233 234 232 229 231 233 235 242 246 250 256 263 282 300 306 308 309 308 309 309 299 293 291 288 283 278 273
41 120 73 87 161 170 178 224 270 301 328 317 253 332 335 274 289 298 245 277 285 296 320 296 252 274 272 282 302 328 356 353 336 283 259 254 258 261 262 259 263 298 297 259 239 233 232 237 238 238 235 230 231 231 231 228 229 231 230 228 227 227 227 228 230 231 232 233 232 232 234 235 233 231 231 232 238 247 249 252 258 264 280 299 310 310 311 307 304 303 294 291 291 284 274 268 267
68 139 98 107 82 96 182 262 302 67 325 302 317 338 332 307 323 329 302 294 284 260 304 277 239 287 286 290 306 339 349 337 334 314 281 268 266 262 262 265 268 281 291 271 245 239 236 237 236 237 237 233 232 232 232 231 232 234 233 231 229 229 228 229 231 231 232 233 234 234 233 233 235 235 233 234 241 248 252 254 256 264 279 296 309 309 308 303 300 296 287 286 282 273 265 263 264
84 111 93 108 25 343 223 256 31 118 216 289 358 349 333 316 324 330 314 288 286 278 261 243 245 288 290 281 295 305 314 316 318 314 296 282 275 264 261 263 268 275 282 275 251 243 243 243 240 236 235 234 234 234 234 233 233 236 236 234 231 231 231 230 231 232 233 234 235 235 234 234 235 237 237 238 242 248 252 253 256 267 279 293 304 306 302 296 294 288 281 279 271 265 262 263 263
76 91 73 77 4 310 239 203 102 118 246 259 357 353 336 311 320 327 319 296 286 285 259 258 265 276 277 277 290 300 304 307 313 314 303 289 278 267 263 262 267 273 276 274 261 252 251 250 247 239 236 235 235 235 237 236 236 238 238 237 235 234 234 232 232 233 233 234 235 235 235 236 237 239 240 239 242 247 251 254 260 270 279 291 300 301 298 292 288 281 276 272 264 262 263 264 263
59 71 68 38 197 221 219 198 174 164 265 272 339 350 334 298 312 309 312 300 286 284 274 275 278 279 283 288 295 298 300 304 310 314 309 298 284 272 266 265 269 274 278 278 272 263 259 260 256 248 241 236 236 236 236 237 237 238 239 238 237 236 235 234 233 232 233 234 234 235 236 237 238 239 239 239 242 246 250 254 260 270 280 290 297 297 293 287 281 275 271 265 261 262 264 265 263
61 85 97 246 200 201 191 188 195 174 269 277 313 329 284 278 304 304 308 292 285 288 286 286 285 289 296 301 303 301 302 305 307 308 304 302 294 282 275 273 275 277 280 280 279 273 268 270 268 258 249 242 239 238 237 237 236 237 238 238 238 237 236 235 235 233 233 233 233 234 236 238 239 239 238 239 241 245 249 254 262 272 281 288 292 291 287 281 275 269 266 261 259 263 265 267 265
105 103 121 234 202 211 203 193 209 210 275 281 297 310 264 263 293 302 296 284 292 298 296 300 301 308 320 322 318 311 307 304 304 303 297 297 296 293 289 284 282 284 286 287 286 281 275 276 276 267 257 250 246 243 241 240 238 238 238 239 238 239 238 237 236 234 233 232 233 235 236 238 239 239 240 240 243 246 249 256 265 273 280 285 286 287 284 278 272 264 262 259 259 264 267 268 267
156 110 164 245 216 231 245 231 245 261 276 282 297 307 278 288 298 285 260 289 299 289 291 300 306 318 330 332 327 319 313 309 305 301 295 295 296 295 294 290 290 293 295 293 288 282 278 278 280 275 264 255 251 249 246 244 242 241 239 240 240 240 240 240 238 236 235 234 234 235 237 238 239 240 240 242 243 246 249 255 262 269 276 281 282 286 285 280 273 263 261 261 260 263 266 268 268
178 153 192 232 187 231 265 262 277 285 280 268 288 306 299 306 306 272 265 310 299 282 289 296 303 315 325 329 329 324 320 317 310 303 299 300 301 299 295 294 293 293 292 288 286 285 282 279 281 280 272 261 253 251 250 249 247 246 243 241 243 242 241 242 242 239 237 237 236 236 238 239 240 241 240 240 241 244 248 254 260 268 273 276 280 285 284 280 274 265 261 260 260 263 266 269 270
175 213 237 244 186 227 278 285 294 294 291 282 294 304 302 309 302 278 265 248 266 284 297 301 304 312 318 323 328 328 324 322 318 310 304 302 301 299 295 293 291 289 286 284 285 285 281 279 280 281 277 268 259 255 253 252 251 250 248 245 244 245 245 244 243 243 241 239 239 239 239 240 241 242 242 242 242 244 247 253 260 266 269 274 281 284 281 277 273 265 258 255 257 260 264 268 270
213 259 257 259 246 249 278 288 291 290 291 289 292 294 299 304 296 287 262 250 271 289 299 303 307 311 316 325 329 329 330 327 325 316 308 303 300 297 292 289 289 289 288 287 284 279 276 272 271 275 278 274 267 261 257 255 253 252 252 250 246 243 246 248 247 247 244 242 242 243 242 242 242 243 243 243 244 245 248 254 261 264 268 275 279 280 278 273 270 264 254 249 252 256 260 264 266
208 269 267 265 267 265 279 289 290 289 286 286 288 288 291 285 286 297 278 273 283 296 305 307 313 319 325 334 336 340 347 340 336 328 317 309 305 300 291 286 287 291 294 294 288 280 274 268 264 266 271 273 271 267 263 260 258 255 254 254 252 246 243 246 250 251 250 247 245 247 246 246 246 243 243 245 247 248 253 259 264 266 270 276 278 278 277 273 269 263 254 246 248 253 256 259 262
194 244 268 278 286 287 293 295 292 290 287 290 291 279 277 276 278 285 282 287 298 305 308 311 321 330 333 339 344 354 354 344 339 331 321 312 307 302 294 289 286 288 291 293 290 282 275 268 262 260 265 268 270 270 270 269 266 262 257 254 255 253 248 245 248 249 250 251 250 250 249 250 251 247 246 248 252 255 259 264 268 270 274 277 279 279 278 276 271 262 254 246 246 250 254 255 258
205 226 270 294 296 297 300 294 289 289 288 291 287 276 281 285 288 275 278 294 324 307 305 318 327 330 329 332 336 339 333 330 328 323 319 310 302 296 292 290 288 286 284 284 285 280 273 268 262 258 260 262 266 270 273 276 276 272 268 261 256 255 255 252 249 247 247 249 252 255 254 254 256 256 254 255 258 263 267 271 274 276 279 280 280 280 281 280 275 265 254 246 245 249 252 254 255
250 274 282 280 289 295 295 287 287 290 289 281 258 268 283 283 85 267 278 298 321 315 341 351 345 338 321 313 318 325 324 326 327 320 310 299 294 293 291 289 289 285 280 275 275 276 269 264 262 258 256 256 262 268 272 275 281 283 279 272 266 259 257 255 252 250 252 253 255 257 258 259 259 261 262 264 267 270 273 274 277 279 281 281 280 281 281 280 278 270 257 246 243 245 249 250 250
312 329 305 289 304 302 288 279 285 291 293 274 232 256 288 266 167 256 277 298 317 337 13 25 26 23 287 285 304 315 320 327 325 315 305 296 296 300 300 299 299 297 290 277 268 267 262 256 251 245 243 244 248 257 266 271 278 285 285 280 276 269 260 253 248 246 251 257 258 257 260 263 264 265 268 271 273 274 274 275 277 280 283 285 284 284 283 279 278 275 265 252 244 243 246 250 250
314 339 316 303 338 317 287 275 278 273 265 269 208 279 305 227 221 260 288 311 330 355 25 38 48 89 210 241 284 298 311 317 311 309 315 319 318 319 319 316 316 313 307 294 272 259 252 245 235 226 226 230 235 242 252 261 269 276 283 286 284 280 271 261 252 248 249 253 257 260 262 264 265 266 269 273 276 275 275 276 279 284 292 297 292 288 284 279 278 281 279 264 252 247 247 251 254
304 342 345 313 353 320 289 276 189 347 270 240 152 283 291 261 251 273 323 347 350 2 25 32 33 153 180 192 235 269 294 301 306 325 350 359 350 344 339 330 324 320 317 307 281 254 239 231 222 218 221 225 226 228 235 246 255 264 274 283 286 285 283 276 268 263 260 257 259 262 263 264 266 267 269 273 276 275 275 279 286 292 297 297 294 291 287 283 282 286 288 279 264 255 251 251 254
301 329 14 338 341 278 294 337 267 329 312 204 158 212 266 273 282 300 350 354 349 355 24 46 55 148 145 149 148 148 43 355 355 20 22 17 8 351 346 338 327 319 312 299 273 237 222 217 214 214 217 220 219 219 225 233 241 249 259 271 281 283 283 282 278 273 272 267 265 265 266 270 273 275 274 274 275 278 282 289 295 299 296 293 294 294 290 288 289 290 292 289 277 265 259 256 255
18 312 305 328 199 264 306 317 226 218 314 149 144 212 267 273 290 311 346 344 340 350 39 93 126 129 128 130 121 107 82 72 68 60 40 31 21 3 4 353 343 331 320 312 298 254 224 215 213 215 217 219 218 216 219 227 235 237 241 252 264 271 272 272 273 271 272 268 266 267 269 273 277 279 279 280 281 283 286 292 297 299 296 295 297 296 293 291 292 292 292 292 286 275 269 265 261
355 202 250 273 221 269 316 328 101 139 66 51 134 233 278 284 289 305 334 341 337 352 79 109 109 107 108 107 103 100 93 90 84 67 50 41 34 31 31 26 23 12 0 354 335 310 273 241 226 225 221 217 214 210 211 220 227 231 233 237 242 249 255 258 259 259 262 264 263 264 266 271 277 280 281 282 285 288 290 293 296 296 293 295 298 297 295 293 292 293 293 294 291 285 278 273 271
308 353 226 249 226 232 294 307 355 57 69 353 329 233 258 272 283 303 335 347 346 54 102 100 92 89 90 90 91 89 85 82 70 60 53 49 46 45 45 43 42 33 23 10 350 340 323 295 238 220 206 201 198 197 196 197 206 216 221 227 233 236 239 244 248 248 250 254 257 257 259 261 263 269 274 274 276 281 286 288 289 290 290 293 296 296 295 293 293 294 295 296 295 293 288 284 281
221 217 219 256 247 233 253 267 303 11 26 313 292 267 262 270 284 320 353 4 40 92 100 93 88 86 84 84 83 81 80 76 67 63 62 62 61 59 60 60 57 57 58 58 54 52 59 77 100 139 150 155 160 168 165 160 176 192 199 208 209 199 197 206 217 229 233 236 243 248 251 253 251 253 258 260 262 267 272 274 276 281 286 290 293 294 294 294 295 296 296 297 297 296 294 293 291
199 209 198 214 241 249 242 248 267 327 348 286 258 259 264 271 299 344 358 31 81 95 97 90 87 86 84 84 82 81 80 76 73 74 78 79 79 76 74 71 69 71 74 78 85 93 96 95 101 109 105 107 117 127 132 139 146 152 167 177 160 142 143 167 178 184 197 210 220 219 217 222 232 240 243 244 246 250 255 259 263 271 277 282 285 287 289 290 292 293 294 296 297 297 297 297 298
157 182 210 217 234 264 261 260 268 196 254 270 253 257 267 271 329 350 354 48 74 82 89 87 86 86 85 85 84 83 82 81 84 89 93 93 93 92 88 85 85 87 85 86 89 88 89 94 102 103 101 106 117 121 126 136 137 138 152 153 141 133 135 151 157 157 169 184 194 194 188 187 198 218 230 235 238 240 246 252 256 260 264 268 272 276 281 286 290 292 294 295 296 296 297 298 299
189 211 253 264 242 260 262 257 276 211 187 263 301 296 274 279 20 6 21 56 53 61 85 87 88 88 86 86 85 87 90 94 101 100 100 103 104 104 102 100 98 94 88 85 84 85 87 92 95 97 102 112 115 117 132 142 140 147 157 148 148 155 156 166 175 175 182 185 198 212 215 213 215 224 234 242 248 254 260 264 266 266 266 268 270 273 278 283 289 292 294 296 296 296 296 296 297
217 197 238 267 249 281 283 278 313 7 180 260 321 297 278 306 64 33 46 67 61 69 88 90 94 92 87 87 86 92 97 99 102 100 101 102 103 104 102 96 92 89 87 85 85 86 86 85 86 88 92 96 96 101 115 121 124 136 151 152 165 183 173 172 187 199 217 229 239 246 252 257 260 261 261 262 263 265 268 269 271 273 274 275 276 277 278 281 283 284 289 295 297 296 296 296 298
190 170 177 251 250 291 280 290 331 356 205 265 287 283 283 315 100 58 59 78 77 78 86 86 89 88 85 90 90 93 96 95 97 97 97 99 100 98 94 91 90 90 88 86 84 84 83 82 82 83 83 84 85 85 86 87 89 94 104 123 145 165 151 150 177 193 222 243 248 252 258 261 264 265 266 267 267 267 268 269 270 271 273 276 277 277 275 275 275 274 277 284 290 292 293 295 297
235 205 198 233 239 215 229 280 328 336 360 4 358 313 294 280 203 91 78 83 75 73 79 78 80 87 92 95 93 93 95 96 97 97 97 98 97 95 93 92 92 90 87 84 82 80 80 80 79 79 79 78 77 75 75 76 78 81 86 94 99 110 120 125 128 112 109 210 226 252 265 266 266 267 267 269 270 270 270 270 270 271 271 272 272 272 272 271 270 269 272 275 279 282 284 286 288
279 232 211 220 227 223 233 305 358 359 336 336 27 347 292 313 300 197 140 77 63 63 68 71 77 90 97 95 93 96 97 98 98 98 99 98 97 95 94 93 90 88 85 83 83 82 81 80 79 79 78 77 75 74 74 77 81 83 86 91 93 97 100 93 80 71 66 58 50 43 27 347 316 305 297 293 289 286 284 281 280 279 277 275 273 271 270 269 271 270 271 272 274 276 279 280 280
279 246 209 211 210 202 203 161 85 273 259 294 45 149 263 312 301 212 167 104 78 67 59 69 85 94 98 98 100 102 101 102 101 101 101 100 99 97 94 92 89 88 87 87 87 86 84 83 81 80 79 78 77 77 77 78 81 83 84 87 87 85 83 78 70 65 63 57 52 52 49 41 34 26 20 14 3 350 338 326 319 312 304 297 289 282 276 273 274 274 273 273 273 274 276 278 278
243 252 157 163 170 174 177 155 167 229 256 317 8 161 249 289 278 221 147 122 95 81 66 73 95 103 106 108 110 110 108 107 105 104 103 101 99 97 94 93 91 90 90 90 88 85 84 82 80 79 78 77 76 76 75 73 73 75 76 78 78 75 72 71 68 65 65 63 63 65 62 60 57 51 47 45 39 32 20 9 0 349 338 330 322 312 302 294 288 283 280 277 275 274 275 276 277
244 215 114 130 146 150 144 128 158 293 356 307 298 191 260 266 274 22 125 144 192 176 164 131 122 118 118 121 120 118 114 111 108 106 104 102 100 97 96 95 94 93 91 87 84 82 80 79 77 76 75 75 73 71 69 68 68 70 70 70 73 73 71 73 72 70 69 66 65 65 61 60 59 57 56 53 49 46 40 32 24 13 6 358 349 342 332 324 315 306 299 292 287 281 277 277 276
209 136 92 69 72 80 79 102 115 32 4 251 240 187 211 270 282 11 135 230 223 183 180 171 147 136 132 131 129 124 119 114 111 109 107 105 103 101 100 99 96 92 88 84 82 80 77 76 73 72 73 73 71 69 67 68 68 68 70 71 74 78 78 80 80 76 71 65 62 60 56 53 51 50 50 49 48 46 41 35 30 24 19 13 4 359 353 348 343 335 326 316 308 301 293 287 284
131 104 65 40 32 41 44 61 89 52 275 246 229 199 184 268 287 208 178 258 210 164 161 178 163 152 149 142 136 130 124 120 117 115 113 110 108 107 104 99 95 91 88 85 82 78 75 72 66 68 73 72 70 69 65 66 68 66 71 75 78 81 82 82 79 75 70 63 59 55 50 47 43 40 38 35 35 35 33 28 26 22 17 11 5 2 360 358 356 352 348 340 330 320 312 305 299
107 87 70 53 341 12 26 358 48 164 252 268 262 208 171 227 266 229 246 298 250 178 170 175 170 163 159 152 144 136 129 126 124 121 118 115 113 110 105 98 95 93 89 84 80 76 73 70 62 63 73 73 69 66 60 61 64 63 66 68 69 70 68 63 60 60 59 54 52 49 44 41 35 31 26 22 21 21 19 15 13 11 7 5 3 360 358 355 352 349 348 347 342 336 330 324 317
88 98 94 87 312 351 349 303 308 229 252 283 288 139 173 236 239 237 294 309 307 270 192 171 166 165 164 158 150 143 137 134 131 127 123 120 117 112 106 101 98 95 90 86 83 78 74 73 64 59 71 76 70 64 59 58 60 61 61 57 55 55 47 41 39 39 38 35 34 29 23 21 17 12 10 9 10 9 7 3 1 360 357 356 355 353 351 348 346 343 342 341 339 337 336 334 330
143 146 131 140 164 86 279 271 278 269 272 295 274 237 268 267 271 350 287 304 315 280 184 169 164 163 163 159 155 149 145 141 137 133 129 124 120 114 110 105 103 100 95 91 87 82 77 75 66 58 70 77 70 64 61 58 59 60 58 53 50 46 38 35 31 28 26 20 17 12 9 8 5 3 1 359 358 357 355 354 352 349 347 345 343 341 340 339 338 337 336 336 334 332 332 331 329
174 156 135 150 158 166 223 225 216 257 285 306 286 254 206 218 247 272 276 345 28 120 154 158 160 163 162 160 159 156 152 148 144 140 134 129 124 121 117 112 110 107 103 98 93 89 80 73 70 63 69 76 73 73 71 62 61 60 56 49 43 37 30 27 23 20 16 10 7 3 359 357 354 353 351 348 345 342 339 340 339 336 335 334 332 331 329 328 327 326 326 326 326 324 322 322 322
211 121 111 170 183 158 183 201 177 188 290 293 241 230 221 182 184 315 37 61 73 112 138 149 157 164 165 165 165 163 159 155 151 146 141 137 133 129 126 122 119 117 113 107 101 98 86 77 83 75 74 84 86 81 71 60 57 53 46 39 30 24 19 14 12 9 4 0 357 353 350 348 345 342 340 338 335 333 331 330 329 328 328 327 326 326 325 323 321 320 319 318 318 316 314 314 314
157 124 175 218 176 123 115 251 34 72 261 270 203 239 288 333 33 351 47 67 77 110 138 152 160 167 172 174 172 169 165 160 155 152 147 144 142 140 139 135 132 130 126 120 116 118 111 107 112 96 90 97 92 80 70 59 52 39 30 22 12 5 359 355 354 352 349 347 343 339 338 336 334 332 330 330 329 328 327 325 324 323 323 323 323 323 323 322 320 318 317 316 314 313 310 310 309
125 180 210 194 124 96 102 233 353 33 244 271 227 217 265 266 263 338 39 116 156 166 165 163 168 175 180 180 176 173 169 164 160 157 155 155 154 155 153 150 148 145 143 140 138 142 145 145 141 124 115 113 100 88 73 56 39 24 15 7 358 351 346 342 341 339 335 333 328 326 327 326 326 325 324 324 323 322 322 321 321 321 321 321 321 321 321 320 319 317 315 313 312 310 308 306 307
129 177 180 116 144 170 100 158 227 243 244 284 304 255 239 214 208 214 207 199 191 191 189 183 186 189 188 185 181 178 175 170 168 165 166 167 168 169 166 164 164 162 166 169 164 165 164 161 156 148 143 130 112 96 63 27 8 1 354 348 340 335 333 330 329 329 325 322 320 318 317 317 318 317 316 317 316 316 317 316 317 318 318 319 319 319 319 317 317 315 313 311 309 308 306 304 303
83 106 92 72 156 171 150 153 171 185 232 279 301 308 270 231 203 188 202 197 179 180 192 199 198 193 191 188 184 182 179 176 175 174 176 178 178 179 177 176 177 176 178 177 170 169 166 165 166 162 157 147 143 163 29 347 339 337 332 330 325 321 322 321 321 320 318 316 315 314 313 312 313 314 314 314 314 314 314 314 314 315 316 317 317 317 317 317 316 314 313 311 309 306 304 302 300
141 147 191 229 147 135 210 215 131 136 173 223 276 287 270 248 201 186 199 189 178 186 192 195 196 194 193 191 186 183 182 180 182 183 184 186 186 185 184 183 182 178 176 171 166 167 167 169 172 170 174 182 190 209 265 312 320 322 319 318 318 318 320 320 319 318 316 314 313 312 312 312 313 315 314 314 314 314 315 314 314 315 315 315 315 316 315 314 314 313 312 311 309 307 304 301 299
174 186 198 191 170 135 216 250 198 131 168 181 210 266 271 260 202 185 189 179 189 198 194 186 192 195 194 192 188 186 185 185 188 189 191 193 192 190 188 184 181 177 173 168 164 167 173 177 182 188 200 212 228 282 318 326 328 330 329 327 327 327 327 326 325 323 320 318 316 314 314 313 314 314 314 314 314 314 314 313 313 312 312 312 312 312 312 311 310 309 308 307 306 305 304 303 301